owner,sensor,date,latitude,longitude,vertical_datum,wind_speed,wind_to_direction,wind_speed_of_gust,qcFlag 
COMPS,ioos:station:USF.COMPS:SHP:1,2014-05-28T15:00:00Z,30.0600,-84.2910,10.0,4.3,137.61,5.48,'1111122,1111122,1111122' 
COMPS,ioos:station:USF.COMPS:SHP:1,2014-05-28T15:06:00Z,30.0600,-84.2910,10.0,4.26,138.72,5.19,'1111122,1111122,1111122' 
COMPS,ioos:station:USF.COMPS:SHP:1,2014-05-28T15:12:00Z,30.0600,-84.2910,10.0,4.88,137.13,5.87,'1111122,1111122,1111122' 
COMPS,ioos:station:USF.COMPS:SHP:1,2014-05-28T15:18:00Z,30.0600,-84.2910,10.0,4.9,141.99,6.66,'1111122,1111122,1111122' 
COMPS,ioos:station:USF.COMPS:SHP:1,2014-05-28T15:24:00Z,30.0600,-84.2910,10.0,4.88,146.38,5.87,'1111122,1111122,1111122' 
COMPS,ioos:station:USF.COMPS:SHP:1,2014-05-28T15:30:00Z,30.0600,-84.2910,10.0,5.01,140.55,5.97,'1111122,1111122,1111122' 
COMPS,ioos:station:USF.COMPS:SHP:1,2014-05-28T15:36:00Z,30.0600,-84.2910,10.0,5.12,150.01,6.27,'1111122,1111122,1111122' 
COMPS,ioos:station:USF.COMPS:SHP:1,2014-05-28T15:42:00Z,30.0600,-84.2910,10.0,5.53,149.74,6.85,'1111122,1111122,1111122' 
COMPS,ioos:station:USF.COMPS:SHP:1,2014-05-28T15:48:00Z,30.0600,-84.2910,10.0,5.26,147.11,6.27,'1111122,1111122,1111122' 
COMPS,ioos:station:USF.COMPS:SHP:1,2014-05-28T15:54:00Z,30.0600,-84.2910,10.0,5.1,147.42,5.97,'1111122,1111122,1111122' 
COMPS,ioos:station:USF.COMPS:SHP:1,2014-05-28T16:00:00Z,30.0600,-84.2910,10.0,5.0,150.84,5.78,'1111122,1111122,1111122' 
COMPS,ioos:station:USF.COMPS:SHP:1,2014-05-28T16:06:00Z,30.0600,-84.2910,10.0,5.34,149.65,6.17,'1111122,1111122,1111122' 
COMPS,ioos:station:USF.COMPS:SHP:1,2014-05-28T16:12:00Z,30.0600,-84.2910,10.0,5.27,151.64,6.37,'1111122,1111122,1111122' 
COMPS,ioos:station:USF.COMPS:SHP:1,2014-05-28T16:18:00Z,30.0600,-84.2910,10.0,5.46,161.96,6.56,'1111122,1111122,1111122' 
COMPS,ioos:station:USF.COMPS:SHP:1,2014-05-28T16:24:00Z,30.0600,-84.2910,10.0,5.35,161.07,6.76,'1111122,1111122,1111122' 
COMPS,ioos:station:USF.COMPS:SHP:1,2014-05-28T16:30:00Z,30.0600,-84.2910,10.0,5.46,163.41,6.37,'1111122,1111122,1111122' 
COMPS,ioos:station:USF.COMPS:SHP:1,2014-05-28T16:36:00Z,30.0600,-84.2910,10.0,5.65,156.65,6.76,'1111122,1111122,1111122' 
COMPS,ioos:station:USF.COMPS:SHP:1,2014-05-28T16:42:00Z,30.0600,-84.2910,10.0,5.48,149.86,6.07,'1111122,1111122,1111122' 
COMPS,ioos:station:USF.COMPS:SHP:1,2014-05-28T16:48:00Z,30.0600,-84.2910,10.0,5.71,150.01,6.66,'1111122,1111122,1111122' 
COMPS,ioos:station:USF.COMPS:SHP:1,2014-05-28T16:54:00Z,30.0600,-84.2910,10.0,5.57,152.99,6.56,'1111122,1111122,1111122' 
COMPS,ioos:station:USF.COMPS:SHP:1,2014-05-28T17:00:00Z,30.0600,-84.2910,10.0,5.54,157.79,6.27,'1111122,1111122,1111122' 
COMPS,ioos:station:USF.COMPS:SHP:1,2014-05-28T17:06:00Z,30.0600,-84.2910,10.0,5.09,159.41,5.97,'1111122,1111122,1111122' 
COMPS,ioos:station:USF.COMPS:SHP:1,2014-05-28T17:12:00Z,30.0600,-84.2910,10.0,5.4,164.47,6.56,'1111122,1111122,1111122' 
COMPS,ioos:station:USF.COMPS:SHP:1,2014-05-28T17:18:00Z,30.0600,-84.2910,10.0,5.56,163.77,6.56,'1111122,1111122,1111122' 
COMPS,ioos:station:USF.COMPS:SHP:1,2014-05-28T17:24:00Z,30.0600,-84.2910,10.0,5.44,165.02,6.76,'1111122,1111122,1111122' 
COMPS,ioos:station:USF.COMPS:SHP:1,2014-05-28T17:30:00Z,30.0600,-84.2910,10.0,5.28,168.91,6.37,'1111122,1111122,1111122' 
COMPS,ioos:station:USF.COMPS:SHP:1,2014-05-28T17:36:00Z,30.0600,-84.2910,10.0,4.98,171.23,5.97,'1111122,1111122,1111122' 
COMPS,ioos:station:USF.COMPS:SHP:1,2014-05-28T17:42:00Z,30.0600,-84.2910,10.0,5.55,165.24,6.85,'1111122,1111122,1111122' 
COMPS,ioos:station:USF.COMPS:SHP:1,2014-05-28T17:48:00Z,30.0600,-84.2910,10.0,5.09,173.57,6.37,'1111122,1111122,1111122' 
COMPS,ioos:station:USF.COMPS:SHP:1,2014-05-28T17:54:00Z,30.0600,-84.2910,10.0,5.05,175.28,6.37,'1111122,1111122,1111122' 
COMPS,ioos:station:USF.COMPS:SHP:1,2014-05-28T18:00:00Z,30.0600,-84.2910,10.0,5.27,171.38,6.95,'1111122,1111122,1111122' 
COMPS,ioos:station:USF.COMPS:SHP:1,2014-05-28T18:06:00Z,30.0600,-84.2910,10.0,5.12,171.8,6.46,'1111122,1111122,1111122' 
COMPS,ioos:station:USF.COMPS:SHP:1,2014-05-28T18:12:00Z,30.0600,-84.2910,10.0,4.59,175.75,6.07,'1111122,1111122,1111122' 
COMPS,ioos:station:USF.COMPS:SHP:1,2014-05-28T18:18:00Z,30.0600,-84.2910,10.0,4.58,183.03,6.56,'1111122,1111122,1111122' 
COMPS,ioos:station:USF.COMPS:SHP:1,2014-05-28T18:24:00Z,30.0600,-84.2910,10.0,5.07,179.68,7.64,'1111122,1111122,1111122' 
COMPS,ioos:station:USF.COMPS:SHP:1,2014-05-28T18:30:00Z,30.0600,-84.2910,10.0,4.46,187.23,5.87,'1111122,1111122,1111122' 
COMPS,ioos:station:USF.COMPS:SHP:1,2014-05-28T18:36:00Z,30.0600,-84.2910,10.0,4.61,184.21,5.97,'1111122,1111122,1111122' 
COMPS,ioos:station:USF.COMPS:SHP:1,2014-05-28T18:42:00Z,30.0600,-84.2910,10.0,4.32,181.45,6.27,'1111122,1111122,1111122' 
COMPS,ioos:station:USF.COMPS:SHP:1,2014-05-28T18:48:00Z,30.0600,-84.2910,10.0,4.87,178.85,6.37,'1111122,1111122,1111122' 
COMPS,ioos:station:USF.COMPS:SHP:1,2014-05-28T18:54:00Z,30.0600,-84.2910,10.0,5.43,170.78,6.46,'1111122,1111122,1111122' 
COMPS,ioos:station:USF.COMPS:SHP:1,2014-05-28T19:00:00Z,30.0600,-84.2910,10.0,5.24,172.7,6.76,'1111122,1111122,1111122' 
COMPS,ioos:station:USF.COMPS:SHP:1,2014-05-28T19:06:00Z,30.0600,-84.2910,10.0,4.47,176.27,6.07,'1111122,1111122,1111122' 
COMPS,ioos:station:USF.COMPS:SHP:1,2014-05-28T19:12:00Z,30.0600,-84.2910,10.0,4.66,177.23,6.07,'1111122,1111122,1111122' 
COMPS,ioos:station:USF.COMPS:SHP:1,2014-05-28T19:18:00Z,30.0600,-84.2910,10.0,4.12,179.39,5.68,'1111122,1111122,1111122' 
COMPS,ioos:station:USF.COMPS:SHP:1,2014-05-28T19:24:00Z,30.0600,-84.2910,10.0,4.22,181.79,5.48,'1111122,1111122,1111122' 
COMPS,ioos:station:USF.COMPS:SHP:1,2014-05-28T19:30:00Z,30.0600,-84.2910,10.0,4.02,187.36,5.39,'1111122,1111122,1111122' 
COMPS,ioos:station:USF.COMPS:SHP:1,2014-05-28T19:36:00Z,30.0600,-84.2910,10.0,4.03,181.17,5.39,'1111122,1111122,1111122' 
COMPS,ioos:station:USF.COMPS:SHP:1,2014-05-28T19:42:00Z,30.0600,-84.2910,10.0,4.63,176.11,6.17,'1111122,1111122,1111122' 
COMPS,ioos:station:USF.COMPS:SHP:1,2014-05-28T19:48:00Z,30.0600,-84.2910,10.0,4.42,184.63,5.97,'1111122,1111122,1111122' 
COMPS,ioos:station:USF.COMPS:SHP:1,2014-05-28T19:54:00Z,30.0600,-84.2910,10.0,4.49,188.52,6.27,'1111122,1111122,1111122' 
COMPS,ioos:station:USF.COMPS:SHP:1,2014-05-28T20:00:00Z,30.0600,-84.2910,10.0,4.48,178.63,6.46,'1111122,1111122,1111122' 
COMPS,ioos:station:USF.COMPS:SHP:1,2014-05-28T20:06:00Z,30.0600,-84.2910,10.0,4.17,181.63,5.87,'1111122,1111122,1111122' 
COMPS,ioos:station:USF.COMPS:SHP:1,2014-05-28T20:12:00Z,30.0600,-84.2910,10.0,4.71,178.35,5.97,'1111122,1111122,1111122' 
COMPS,ioos:station:USF.COMPS:SHP:1,2014-05-28T20:18:00Z,30.0600,-84.2910,10.0,4.87,175.97,6.27,'1111122,1111122,1111122' 
COMPS,ioos:station:USF.COMPS:SHP:1,2014-05-28T20:24:00Z,30.0600,-84.2910,10.0,4.83,175.4,6.56,'1111122,1111122,1111122' 
COMPS,ioos:station:USF.COMPS:SHP:1,2014-05-28T20:30:00Z,30.0600,-84.2910,10.0,4.42,182.5,5.58,'1111122,1111122,1111122' 
COMPS,ioos:station:USF.COMPS:SHP:1,2014-05-28T20:36:00Z,30.0600,-84.2910,10.0,4.73,178.01,6.07,'1111122,1111122,1111122' 
COMPS,ioos:station:USF.COMPS:SHP:1,2014-05-28T20:42:00Z,30.0600,-84.2910,10.0,4.88,178.29,6.76,'1111122,1111122,1111122' 
COMPS,ioos:station:USF.COMPS:SHP:1,2014-05-28T20:48:00Z,30.0600,-84.2910,10.0,5.0,174.53,6.66,'1111122,1111122,1111122' 
COMPS,ioos:station:USF.COMPS:SHP:1,2014-05-28T20:54:00Z,30.0600,-84.2910,10.0,4.31,180.17,6.07,'1111122,1111122,1111122' 
COMPS,ioos:station:USF.COMPS:SHP:1,2014-05-28T21:00:00Z,30.0600,-84.2910,10.0,4.67,178.24,5.97,'1111122,1111122,1111122' 
COMPS,ioos:station:USF.COMPS:SHP:1,2014-05-28T21:06:00Z,30.0600,-84.2910,10.0,4.8,178.88,6.27,'1111122,1111122,1111122' 
COMPS,ioos:station:USF.COMPS:SHP:1,2014-05-28T21:12:00Z,30.0600,-84.2910,10.0,5.11,173.95,6.37,'1111122,1111122,1111122' 
COMPS,ioos:station:USF.COMPS:SHP:1,2014-05-28T21:18:00Z,30.0600,-84.2910,10.0,5.82,168.15,6.66,'1111122,1111122,1111122' 
COMPS,ioos:station:USF.COMPS:SHP:1,2014-05-28T21:24:00Z,30.0600,-84.2910,10.0,4.99,175.49,6.17,'1111122,1111122,1111122' 
COMPS,ioos:station:USF.COMPS:SHP:1,2014-05-28T21:30:00Z,30.0600,-84.2910,10.0,4.5,175.52,6.46,'1111122,1111122,1111122' 
COMPS,ioos:station:USF.COMPS:SHP:1,2014-05-28T21:36:00Z,30.0600,-84.2910,10.0,4.08,182.71,5.48,'1111122,1111122,1111122' 
COMPS,ioos:station:USF.COMPS:SHP:1,2014-05-28T21:42:00Z,30.0600,-84.2910,10.0,4.22,176.47,5.58,'1111122,1111122,1111122' 
COMPS,ioos:station:USF.COMPS:SHP:1,2014-05-28T21:48:00Z,30.0600,-84.2910,10.0,3.66,178.58,4.9,'1111122,1111122,1111122' 
COMPS,ioos:station:USF.COMPS:SHP:1,2014-05-28T21:54:00Z,30.0600,-84.2910,10.0,4.2,176.78,5.58,'1111122,1111122,1111122' 
COMPS,ioos:station:USF.COMPS:SHP:1,2014-05-28T22:00:00Z,30.0600,-84.2910,10.0,4.31,175.27,5.87,'1111122,1111122,1111122' 
COMPS,ioos:station:USF.COMPS:SHP:1,2014-05-28T22:06:00Z,30.0600,-84.2910,10.0,4.29,170.3,5.87,'1111122,1111122,1111122' 
COMPS,ioos:station:USF.COMPS:SHP:1,2014-05-28T22:12:00Z,30.0600,-84.2910,10.0,3.54,176.79,5.68,'1111122,1111122,1111122' 
COMPS,ioos:station:USF.COMPS:SHP:1,2014-05-28T22:18:00Z,30.0600,-84.2910,10.0,4.12,174.81,5.68,'1111122,1111122,1111122' 
COMPS,ioos:station:USF.COMPS:SHP:1,2014-05-28T22:24:00Z,30.0600,-84.2910,10.0,3.35,180.0,4.8,'1111122,1111122,1111122' 
COMPS,ioos:station:USF.COMPS:SHP:1,2014-05-28T22:30:00Z,30.0600,-84.2910,10.0,3.06,179.28,4.31,'1111122,1111122,1111122' 
COMPS,ioos:station:USF.COMPS:SHP:1,2014-05-28T22:36:00Z,30.0600,-84.2910,10.0,3.92,170.92,5.97,'1111122,1111122,1111122' 
COMPS,ioos:station:USF.COMPS:SHP:1,2014-05-28T22:42:00Z,30.0600,-84.2910,10.0,4.04,165.78,5.19,'1111122,1111122,1111122' 
COMPS,ioos:station:USF.COMPS:SHP:1,2014-05-28T22:48:00Z,30.0600,-84.2910,10.0,4.29,171.33,5.39,'1111122,1111122,1111122' 
COMPS,ioos:station:USF.COMPS:SHP:1,2014-05-28T22:54:00Z,30.0600,-84.2910,10.0,3.57,176.27,5.39,'1111122,1111122,1111122' 
COMPS,ioos:station:USF.COMPS:SHP:1,2014-05-28T23:00:00Z,30.0600,-84.2910,10.0,4.11,169.33,5.58,'1111122,1111122,1111122' 
COMPS,ioos:station:USF.COMPS:SHP:1,2014-05-28T23:06:00Z,30.0600,-84.2910,10.0,3.99,173.93,5.87,'1111122,1111122,1111122' 
COMPS,ioos:station:USF.COMPS:SHP:1,2014-05-28T23:12:00Z,30.0600,-84.2910,10.0,4.45,174.13,5.68,'1111122,1111122,1111122' 
COMPS,ioos:station:USF.COMPS:SHP:1,2014-05-28T23:18:00Z,30.0600,-84.2910,10.0,3.48,179.92,4.9,'1111122,1111122,1111122' 
COMPS,ioos:station:USF.COMPS:SHP:1,2014-05-28T23:24:00Z,30.0600,-84.2910,10.0,3.7,179.26,4.9,'1111122,1111122,1111122' 
COMPS,ioos:station:USF.COMPS:SHP:1,2014-05-28T23:30:00Z,30.0600,-84.2910,10.0,3.54,178.79,5.87,'1111122,1111122,1111122' 
COMPS,ioos:station:USF.COMPS:SHP:1,2014-05-28T23:36:00Z,30.0600,-84.2910,10.0,3.9,173.27,5.19,'1111122,1111122,1111122' 
COMPS,ioos:station:USF.COMPS:SHP:1,2014-05-28T23:42:00Z,30.0600,-84.2910,10.0,3.4,181.0,4.6,'1111122,1111122,1111122' 
COMPS,ioos:station:USF.COMPS:SHP:1,2014-05-28T23:48:00Z,30.0600,-84.2910,10.0,3.19,173.74,4.99,'1111122,1111122,1111122' 
COMPS,ioos:station:USF.COMPS:SHP:1,2014-05-28T23:54:00Z,30.0600,-84.2910,10.0,3.22,189.4,4.6,'1111122,1111122,1111122' 
COMPS,ioos:station:USF.COMPS:SHP:1,2014-05-29T00:00:00Z,30.0600,-84.2910,10.0,2.96,185.17,4.31,'1111122,1111122,1111122' 
COMPS,ioos:station:USF.COMPS:SHP:1,2014-05-29T00:06:00Z,30.0600,-84.2910,10.0,3.05,176.72,4.31,'1111122,1111122,1111122' 
COMPS,ioos:station:USF.COMPS:SHP:1,2014-05-29T00:12:00Z,30.0600,-84.2910,10.0,3.07,179.59,4.5,'1111122,1111122,1111122' 
COMPS,ioos:station:USF.COMPS:SHP:1,2014-05-29T00:18:00Z,30.0600,-84.2910,10.0,3.52,179.57,5.09,'1111122,1111122,1111122' 
COMPS,ioos:station:USF.COMPS:SHP:1,2014-05-29T00:24:00Z,30.0600,-84.2910,10.0,2.88,180.19,4.21,'1111122,1111122,1111122' 
COMPS,ioos:station:USF.COMPS:SHP:1,2014-05-29T00:30:00Z,30.0600,-84.2910,10.0,3.19,188.02,4.8,'1111122,1111122,1111122' 
COMPS,ioos:station:USF.COMPS:SHP:1,2014-05-29T00:36:00Z,30.0600,-84.2910,10.0,3.24,187.99,4.31,'1111122,1111122,1111122' 
COMPS,ioos:station:USF.COMPS:SHP:1,2014-05-29T00:42:00Z,30.0600,-84.2910,10.0,2.79,187.18,4.11,'1111122,1111122,1111122' 
COMPS,ioos:station:USF.COMPS:SHP:1,2014-05-29T00:48:00Z,30.0600,-84.2910,10.0,3.08,186.45,4.6,'1111122,1111122,1111122' 
COMPS,ioos:station:USF.COMPS:SHP:1,2014-05-29T00:54:00Z,30.0600,-84.2910,10.0,2.72,186.82,4.01,'1111122,1111122,1111122' 
COMPS,ioos:station:USF.COMPS:SHP:1,2014-05-29T01:00:00Z,30.0600,-84.2910,10.0,3.03,178.8,4.7,'1111122,1111122,1111122' 
COMPS,ioos:station:USF.COMPS:SHP:1,2014-05-29T01:06:00Z,30.0600,-84.2910,10.0,3.15,188.9,4.7,'1111122,1111122,1111122' 
COMPS,ioos:station:USF.COMPS:SHP:1,2014-05-29T01:12:00Z,30.0600,-84.2910,10.0,3.04,185.37,4.21,'1111122,1111122,1111122' 
COMPS,ioos:station:USF.COMPS:SHP:1,2014-05-29T01:18:00Z,30.0600,-84.2910,10.0,3.69,194.07,4.9,'1111122,1111122,1111122' 
COMPS,ioos:station:USF.COMPS:SHP:1,2014-05-29T01:24:00Z,30.0600,-84.2910,10.0,4.09,193.29,5.09,'1111122,1111122,1111122' 
COMPS,ioos:station:USF.COMPS:SHP:1,2014-05-29T01:30:00Z,30.0600,-84.2910,10.0,3.43,190.56,4.99,'1111122,1111122,1111122' 
COMPS,ioos:station:USF.COMPS:SHP:1,2014-05-29T01:36:00Z,30.0600,-84.2910,10.0,3.61,191.97,5.29,'1111122,1111122,1111122' 
COMPS,ioos:station:USF.COMPS:SHP:1,2014-05-29T01:42:00Z,30.0600,-84.2910,10.0,3.37,191.41,5.19,'1111122,1111122,1111122' 
COMPS,ioos:station:USF.COMPS:SHP:1,2014-05-29T01:48:00Z,30.0600,-84.2910,10.0,3.61,190.97,5.09,'1111122,1111122,1111122' 
COMPS,ioos:station:USF.COMPS:SHP:1,2014-05-29T01:54:00Z,30.0600,-84.2910,10.0,4.1,192.33,5.58,'1111122,1111122,1111122' 
COMPS,ioos:station:USF.COMPS:SHP:1,2014-05-29T02:00:00Z,30.0600,-84.2910,10.0,4.24,197.37,5.29,'1111122,1111122,1111122' 
COMPS,ioos:station:USF.COMPS:SHP:1,2014-05-29T02:06:00Z,30.0600,-84.2910,10.0,4.55,194.2,6.17,'1111122,1111122,1111122' 
COMPS,ioos:station:USF.COMPS:SHP:1,2014-05-29T02:12:00Z,30.0600,-84.2910,10.0,3.32,194.51,4.9,'1111122,1111122,1111122' 
COMPS,ioos:station:USF.COMPS:SHP:1,2014-05-29T02:18:00Z,30.0600,-84.2910,10.0,3.38,188.56,4.9,'1111122,1111122,1111122' 
COMPS,ioos:station:USF.COMPS:SHP:1,2014-05-29T02:24:00Z,30.0600,-84.2910,10.0,3.94,186.84,5.09,'1111122,1111122,1111122' 
COMPS,ioos:station:USF.COMPS:SHP:1,2014-05-29T02:30:00Z,30.0600,-84.2910,10.0,3.39,191.87,5.29,'1111122,1111122,1111122' 
COMPS,ioos:station:USF.COMPS:SHP:1,2014-05-29T02:36:00Z,30.0600,-84.2910,10.0,3.54,181.52,5.19,'1111122,1111122,1111122' 
COMPS,ioos:station:USF.COMPS:SHP:1,2014-05-29T02:42:00Z,30.0600,-84.2910,10.0,3.65,177.88,4.99,'1111122,1111122,1111122' 
COMPS,ioos:station:USF.COMPS:SHP:1,2014-05-29T02:48:00Z,30.0600,-84.2910,10.0,3.54,188.57,4.5,'1111122,1111122,1111122' 
COMPS,ioos:station:USF.COMPS:SHP:1,2014-05-29T02:54:00Z,30.0600,-84.2910,10.0,3.63,187.0,4.9,'1111122,1111122,1111122' 
COMPS,ioos:station:USF.COMPS:SHP:1,2014-05-29T03:00:00Z,30.0600,-84.2910,10.0,3.16,188.17,4.21,'1111122,1111122,1111122' 
COMPS,ioos:station:USF.COMPS:SHP:1,2014-05-29T03:06:00Z,30.0600,-84.2910,10.0,3.45,174.92,4.7,'1111122,1111122,1111122' 
COMPS,ioos:station:USF.COMPS:SHP:1,2014-05-29T03:12:00Z,30.0600,-84.2910,10.0,3.57,172.16,4.5,'1111122,1111122,1111122' 
COMPS,ioos:station:USF.COMPS:SHP:1,2014-05-29T03:18:00Z,30.0600,-84.2910,10.0,3.56,172.7,4.31,'1111122,1111122,1111122' 
COMPS,ioos:station:USF.COMPS:SHP:1,2014-05-29T03:24:00Z,30.0600,-84.2910,10.0,2.98,176.39,4.5,'1111122,1111122,1111122' 
COMPS,ioos:station:USF.COMPS:SHP:1,2014-05-29T03:30:00Z,30.0600,-84.2910,10.0,2.54,173.88,3.62,'1111122,1111122,1111122' 
COMPS,ioos:station:USF.COMPS:SHP:1,2014-05-29T03:36:00Z,30.0600,-84.2910,10.0,3.37,166.4,4.21,'1111122,1111122,1111122' 
COMPS,ioos:station:USF.COMPS:SHP:1,2014-05-29T03:42:00Z,30.0600,-84.2910,10.0,2.51,173.09,3.82,'1111122,1111122,1111122' 
COMPS,ioos:station:USF.COMPS:SHP:1,2014-05-29T03:48:00Z,30.0600,-84.2910,10.0,2.88,169.96,3.92,'1111122,1111122,1111122' 
COMPS,ioos:station:USF.COMPS:SHP:1,2014-05-29T03:54:00Z,30.0600,-84.2910,10.0,2.72,169.58,3.72,'1111122,1111122,1111122' 
COMPS,ioos:station:USF.COMPS:SHP:1,2014-05-29T04:00:00Z,30.0600,-84.2910,10.0,2.47,170.06,3.23,'1111122,1111122,1111122' 
COMPS,ioos:station:USF.COMPS:SHP:1,2014-05-29T04:06:00Z,30.0600,-84.2910,10.0,2.64,161.77,3.62,'1111122,1111122,1111122' 
COMPS,ioos:station:USF.COMPS:SHP:1,2014-05-29T04:12:00Z,30.0600,-84.2910,10.0,2.23,156.6,3.13,'1111122,1111122,1111122' 
COMPS,ioos:station:USF.COMPS:SHP:1,2014-05-29T04:18:00Z,30.0600,-84.2910,10.0,2.54,157.41,3.43,'1111122,1111122,1111122' 
COMPS,ioos:station:USF.COMPS:SHP:1,2014-05-29T04:24:00Z,30.0600,-84.2910,10.0,2.73,146.68,3.43,'1111122,1111122,1111122' 
COMPS,ioos:station:USF.COMPS:SHP:1,2014-05-29T04:30:00Z,30.0600,-84.2910,10.0,2.52,154.94,3.33,'1111122,1111122,1111122' 
COMPS,ioos:station:USF.COMPS:SHP:1,2014-05-29T04:36:00Z,30.0600,-84.2910,10.0,2.39,154.64,2.84,'1111122,1111122,1111122' 
COMPS,ioos:station:USF.COMPS:SHP:1,2014-05-29T04:42:00Z,30.0600,-84.2910,10.0,2.26,161.0,3.03,'1111122,1111122,1111122' 
COMPS,ioos:station:USF.COMPS:SHP:1,2014-05-29T04:48:00Z,30.0600,-84.2910,10.0,2.4,146.71,3.13,'1111122,1111122,1111122' 
COMPS,ioos:station:USF.COMPS:SHP:1,2014-05-29T04:54:00Z,30.0600,-84.2910,10.0,1.97,149.67,2.74,'1111122,1111122,1111122' 
COMPS,ioos:station:USF.COMPS:SHP:1,2014-05-29T05:00:00Z,30.0600,-84.2910,10.0,2.37,159.01,3.13,'1111122,1111122,1111122' 
COMPS,ioos:station:USF.COMPS:SHP:1,2014-05-29T05:06:00Z,30.0600,-84.2910,10.0,2.31,149.98,2.84,'1111122,1111122,1111122' 
COMPS,ioos:station:USF.COMPS:SHP:1,2014-05-29T05:12:00Z,30.0600,-84.2910,10.0,2.65,150.6,3.52,'1111122,1111122,1111122' 
COMPS,ioos:station:USF.COMPS:SHP:1,2014-05-29T05:18:00Z,30.0600,-84.2910,10.0,2.92,153.58,3.82,'1111122,1111122,1111122' 
COMPS,ioos:station:USF.COMPS:SHP:1,2014-05-29T05:24:00Z,30.0600,-84.2910,10.0,2.81,150.93,3.92,'1111122,1111122,1111122' 
COMPS,ioos:station:USF.COMPS:SHP:1,2014-05-29T05:30:00Z,30.0600,-84.2910,10.0,2.76,147.62,3.82,'1111122,1111122,1111122' 
COMPS,ioos:station:USF.COMPS:SHP:1,2014-05-29T05:36:00Z,30.0600,-84.2910,10.0,2.92,156.9,3.62,'1111122,1111122,1111122' 
COMPS,ioos:station:USF.COMPS:SHP:1,2014-05-29T05:42:00Z,30.0600,-84.2910,10.0,3.5,141.46,4.5,'1111122,1111122,1111122' 
COMPS,ioos:station:USF.COMPS:SHP:1,2014-05-29T05:48:00Z,30.0600,-84.2910,10.0,3.35,143.92,3.92,'1111122,1111122,1111122' 
COMPS,ioos:station:USF.COMPS:SHP:1,2014-05-29T05:54:00Z,30.0600,-84.2910,10.0,3.32,146.34,4.5,'1111122,1111122,1111122' 
COMPS,ioos:station:USF.COMPS:SHP:1,2014-05-29T06:00:00Z,30.0600,-84.2910,10.0,3.57,146.4,4.31,'1111122,1111122,1111122' 
COMPS,ioos:station:USF.COMPS:SHP:1,2014-05-29T06:06:00Z,30.0600,-84.2910,10.0,3.37,151.07,3.82,'1111122,1111122,1111122' 
COMPS,ioos:station:USF.COMPS:SHP:1,2014-05-29T06:12:00Z,30.0600,-84.2910,10.0,3.18,152.71,4.5,'1111122,1111122,1111122' 
COMPS,ioos:station:USF.COMPS:SHP:1,2014-05-29T06:18:00Z,30.0600,-84.2910,10.0,3.08,152.88,4.11,'1111122,1111122,1111122' 
COMPS,ioos:station:USF.COMPS:SHP:1,2014-05-29T06:24:00Z,30.0600,-84.2910,10.0,3.21,147.88,3.82,'1111122,1111122,1111122' 
COMPS,ioos:station:USF.COMPS:SHP:1,2014-05-29T06:30:00Z,30.0600,-84.2910,10.0,3.79,155.43,4.6,'1111122,1111122,1111122' 
COMPS,ioos:station:USF.COMPS:SHP:1,2014-05-29T06:36:00Z,30.0600,-84.2910,10.0,3.86,161.3,4.31,'1111122,1111122,1111122' 
COMPS,ioos:station:USF.COMPS:SHP:1,2014-05-29T06:42:00Z,30.0600,-84.2910,10.0,4.47,159.48,5.48,'1111122,1111122,1111122' 
COMPS,ioos:station:USF.COMPS:SHP:1,2014-05-29T06:48:00Z,30.0600,-84.2910,10.0,4.02,154.93,4.7,'1111122,1111122,1111122' 
COMPS,ioos:station:USF.COMPS:SHP:1,2014-05-29T06:54:00Z,30.0600,-84.2910,10.0,4.2,151.62,5.09,'1111122,1111122,1111122' 
COMPS,ioos:station:USF.COMPS:SHP:1,2014-05-29T07:00:00Z,30.0600,-84.2910,10.0,4.24,154.06,4.9,'1111122,1111122,1111122' 
COMPS,ioos:station:USF.COMPS:SHP:1,2014-05-29T07:06:00Z,30.0600,-84.2910,10.0,3.97,150.37,4.9,'1111122,1111122,1111122' 
COMPS,ioos:station:USF.COMPS:SHP:1,2014-05-29T07:12:00Z,30.0600,-84.2910,10.0,4.27,146.2,4.99,'1111122,1111122,1111122' 
COMPS,ioos:station:USF.COMPS:SHP:1,2014-05-29T07:18:00Z,30.0600,-84.2910,10.0,4.08,146.23,4.8,'1111122,1111122,1111122' 
COMPS,ioos:station:USF.COMPS:SHP:1,2014-05-29T07:24:00Z,30.0600,-84.2910,10.0,3.82,147.05,4.6,'1111122,1111122,1111122' 
COMPS,ioos:station:USF.COMPS:SHP:1,2014-05-29T07:30:00Z,30.0600,-84.2910,10.0,3.45,145.94,4.6,'1111122,1111122,1111122' 
COMPS,ioos:station:USF.COMPS:SHP:1,2014-05-29T07:36:00Z,30.0600,-84.2910,10.0,3.45,139.21,4.99,'1111122,1111122,1111122' 
COMPS,ioos:station:USF.COMPS:SHP:1,2014-05-29T07:42:00Z,30.0600,-84.2910,10.0,4.17,139.4,4.8,'1111122,1111122,1111122' 
COMPS,ioos:station:USF.COMPS:SHP:1,2014-05-29T07:48:00Z,30.0600,-84.2910,10.0,3.88,145.97,5.39,'1111122,1111122,1111122' 
COMPS,ioos:station:USF.COMPS:SHP:1,2014-05-29T07:54:00Z,30.0600,-84.2910,10.0,3.8,145.15,4.99,'1111122,1111122,1111122' 
COMPS,ioos:station:USF.COMPS:SHP:1,2014-05-29T08:00:00Z,30.0600,-84.2910,10.0,4.3,144.84,4.9,'1111122,1111122,1111122' 
COMPS,ioos:station:USF.COMPS:SHP:1,2014-05-29T08:06:00Z,30.0600,-84.2910,10.0,4.28,132.99,5.09,'1111122,1111122,1111122' 
COMPS,ioos:station:USF.COMPS:SHP:1,2014-05-29T08:12:00Z,30.0600,-84.2910,10.0,3.57,129.26,4.9,'1111122,1111122,1111122' 
COMPS,ioos:station:USF.COMPS:SHP:1,2014-05-29T08:18:00Z,30.0600,-84.2910,10.0,4.46,131.03,5.68,'1111122,1111122,1111122' 
COMPS,ioos:station:USF.COMPS:SHP:1,2014-05-29T08:24:00Z,30.0600,-84.2910,10.0,4.38,133.54,5.97,'1111122,1111122,1111122' 
COMPS,ioos:station:USF.COMPS:SHP:1,2014-05-29T08:30:00Z,30.0600,-84.2910,10.0,4.76,134.75,6.66,'1111122,1111122,1111122' 
COMPS,ioos:station:USF.COMPS:SHP:1,2014-05-29T08:36:00Z,30.0600,-84.2910,10.0,4.34,132.37,5.48,'1111122,1111122,1111122' 
COMPS,ioos:station:USF.COMPS:SHP:1,2014-05-29T08:42:00Z,30.0600,-84.2910,10.0,4.88,136.58,5.78,'1111122,1111122,1111122' 
COMPS,ioos:station:USF.COMPS:SHP:1,2014-05-29T08:48:00Z,30.0600,-84.2910,10.0,4.66,134.04,5.78,'1111122,1111122,1111122' 
COMPS,ioos:station:USF.COMPS:SHP:1,2014-05-29T08:54:00Z,30.0600,-84.2910,10.0,4.61,136.1,5.87,'1111122,1111122,1111122' 
COMPS,ioos:station:USF.COMPS:SHP:1,2014-05-29T09:00:00Z,30.0600,-84.2910,10.0,4.87,126.84,6.07,'1111122,1111122,1111122' 
COMPS,ioos:station:USF.COMPS:SHP:1,2014-05-29T09:06:00Z,30.0600,-84.2910,10.0,4.88,127.84,7.25,'1111122,1111122,1111122' 
COMPS,ioos:station:USF.COMPS:SHP:1,2014-05-29T09:12:00Z,30.0600,-84.2910,10.0,5.56,130.79,6.95,'1111122,1111122,1111122' 
COMPS,ioos:station:USF.COMPS:SHP:1,2014-05-29T09:18:00Z,30.0600,-84.2910,10.0,5.12,128.08,7.15,'1111122,1111122,1111122' 
COMPS,ioos:station:USF.COMPS:SHP:1,2014-05-29T09:24:00Z,30.0600,-84.2910,10.0,4.72,125.76,6.37,'1111122,1111122,1111122' 
COMPS,ioos:station:USF.COMPS:SHP:1,2014-05-29T09:30:00Z,30.0600,-84.2910,10.0,5.58,132.6,7.25,'1111122,1111122,1111122' 
COMPS,ioos:station:USF.COMPS:SHP:1,2014-05-29T09:36:00Z,30.0600,-84.2910,10.0,5.67,130.87,7.05,'1111122,1111122,1111122' 
COMPS,ioos:station:USF.COMPS:SHP:1,2014-05-29T09:42:00Z,30.0600,-84.2910,10.0,5.41,130.87,6.76,'1111122,1111122,1111122' 
COMPS,ioos:station:USF.COMPS:SHP:1,2014-05-29T09:48:00Z,30.0600,-84.2910,10.0,5.26,127.79,6.56,'1111122,1111122,1111122' 
COMPS,ioos:station:USF.COMPS:SHP:1,2014-05-29T09:54:00Z,30.0600,-84.2910,10.0,4.2,127.12,5.68,'1111122,1111122,1111122' 
COMPS,ioos:station:USF.COMPS:SHP:1,2014-05-29T10:00:00Z,30.0600,-84.2910,10.0,5.12,135.18,6.56,'1111122,1111122,1111122' 
COMPS,ioos:station:USF.COMPS:SHP:1,2014-05-29T10:06:00Z,30.0600,-84.2910,10.0,4.77,130.14,5.97,'1111122,1111122,1111122' 
COMPS,ioos:station:USF.COMPS:SHP:1,2014-05-29T10:12:00Z,30.0600,-84.2910,10.0,4.69,126.95,6.17,'1111122,1111122,1111122' 
COMPS,ioos:station:USF.COMPS:SHP:1,2014-05-29T10:18:00Z,30.0600,-84.2910,10.0,4.9,131.05,6.17,'1111122,1111122,1111122' 
COMPS,ioos:station:USF.COMPS:SHP:1,2014-05-29T10:24:00Z,30.0600,-84.2910,10.0,4.9,132.37,6.46,'1111122,1111122,1111122' 
COMPS,ioos:station:USF.COMPS:SHP:1,2014-05-29T10:30:00Z,30.0600,-84.2910,10.0,4.05,128.3,5.19,'1111122,1111122,1111122' 